Wetterdaten: aktuell Donnerstag, 14.06.2018 17:45
Datum Zeit Temp. A. Temp. A. min Feuchte A. Luftdruck Regen Wind Richtung Richtung Sonnenschein Solar Taupunkt Windchill Windben
14.06.2018 17:45 21,2 C 21,1 C 45 % 1022,0 hPa 0,0 l/m 7,0 km/h (2 Bft) S-SW 202 0 min 0 W/m 8,8 C 21,2 C 9,7 km/h (2 Bft)
14.06.2018 17:40 21,1 C 21,1 C 45 % 1022,0 hPa 0,0 l/m 3,4 km/h (1 Bft) SW 228 0 min 0 W/m 8,7 C 21,1 C 8,0 km/h (2 Bft)
14.06.2018 17:35 21,2 C 21,1 C 46 % 1022,0 hPa 0,0 l/m 3,3 km/h (1 Bft) W-NW 298 0 min 0 W/m 9,1 C 21,2 C 8,0 km/h (2 Bft)
14.06.2018 17:30 21,1 C 21,0 C 46 % 1022,0 hPa 0,0 l/m 3,2 km/h (1 Bft) S-SO 158 0 min 0 W/m 9,0 C 21,1 C 6,4 km/h (2 Bft)
14.06.2018 17:25 21,1 C 21,1 C 45 % 1022,0 hPa 0,0 l/m 4,2 km/h (1 Bft) N 9 0 min 0 W/m 8,7 C 21,1 C 9,7 km/h (2 Bft)
14.06.2018 17:20 21,2 C 21,1 C 45 % 1022,0 hPa 0,0 l/m 5,5 km/h (1 Bft) W-NW 294 0 min 0 W/m 8,8 C 21,2 C 11,3 km/h (2 Bft)
14.06.2018 17:15 21,1 C 21,1 C 46 % 1022,1 hPa 0,0 l/m 3,3 km/h (1 Bft) W 279 0 min 0 W/m 9,0 C 21,1 C 9,7 km/h (2 Bft)
14.06.2018 17:10 21,1 C 21,0 C 46 % 1022,1 hPa 0,0 l/m 3,9 km/h (1 Bft) W 279 0 min 0 W/m 9,0 C 21,1 C 8,0 km/h (2 Bft)
14.06.2018 17:05 21,1 C 21,1 C 45 % 1022,1 hPa 0,0 l/m 2,7 km/h (1 Bft) W-NW 288 0 min 0 W/m 8,7 C 21,1 C 4,8 km/h (1 Bft)
14.06.2018 17:00 21,1 C 21,0 C 45 % 1022,2 hPa 0,0 l/m 3,2 km/h (1 Bft) NO 51 0 min 0 W/m 8,7 C 21,1 C 6,4 km/h (2 Bft)
14.06.2018 16:55 21,0 C 21,0 C 46 % 1022,2 hPa 0,0 l/m 4,4 km/h (1 Bft) SO 136 0 min 0 W/m 8,9 C 21,0 C 8,0 km/h (2 Bft)
14.06.2018 16:50 21,1 C 21,1 C 45 % 1022,2 hPa 0,0 l/m 4,9 km/h (1 Bft) O-NO 71 0 min 0 W/m 8,7 C 21,1 C 9,7 km/h (2 Bft)
14.06.2018 16:45 21,3 C 21,3 C 46 % 1022,2 hPa 0,0 l/m 7,1 km/h (2 Bft) O-SO 120 0 min 0 W/m 9,2 C 21,3 C 17,7 km/h (3 Bft)
14.06.2018 16:40 21,4 C 21,3 C 45 % 1022,2 hPa 0,0 l/m 4,4 km/h (1 Bft) S 186 0 min 0 W/m 9,0 C 21,4 C 11,3 km/h (2 Bft)
14.06.2018 16:35 21,3 C 21,3 C 45 % 1022,3 hPa 0,0 l/m 2,9 km/h (1 Bft) S 182 0 min 0 W/m 8,9 C 21,3 C 11,3 km/h (2 Bft)
14.06.2018 16:30 21,3 C 21,1 C 45 % 1022,4 hPa 0,0 l/m 3,6 km/h (1 Bft) O-SO 109 0 min 0 W/m 8,9 C 21,3 C 9,7 km/h (2 Bft)
14.06.2018 16:25 21,1 C 21,1 C 45 % 1022,4 hPa 0,0 l/m 6,0 km/h (2 Bft) S-SW 200 0 min 0 W/m 8,7 C 21,1 C 12,9 km/h (3 Bft)
14.06.2018 16:20 21,2 C 21,1 C 44 % 1022,4 hPa 0,0 l/m 2,1 km/h (1 Bft) SW 230 0 min 0 W/m 8,5 C 21,2 C 4,8 km/h (1 Bft)
14.06.2018 16:15 21,1 C 21,1 C 46 % 1022,5 hPa 0,0 l/m 5,2 km/h (1 Bft) S-SO 158 0 min 0 W/m 9,0 C 21,1 C 9,7 km/h (2 Bft)
14.06.2018 16:10 21,1 C 21,1 C 45 % 1022,6 hPa 0,0 l/m 5,8 km/h (2 Bft) S 181 0 min 0 W/m 8,7 C 21,1 C 12,9 km/h (3 Bft)
14.06.2018 16:05 21,4 C 21,4 C 44 % 1022,6 hPa 0,0 l/m 5,2 km/h (1 Bft) SW 229 0 min 0 W/m 8,6 C 21,4 C 14,5 km/h (3 Bft)
14.06.2018 16:00 21,4 C 21,2 C 45 % 1022,7 hPa 0,0 l/m 6,4 km/h (2 Bft) S-SW 202 0 min 0 W/m 9,0 C 21,4 C 12,9 km/h (3 Bft)
14.06.2018 15:55 21,2 C 21,2 C 46 % 1022,7 hPa 0,0 l/m 4,9 km/h (1 Bft) S-SW 207 0 min 0 W/m 9,1 C 21,2 C 11,3 km/h (2 Bft)
14.06.2018 15:50 21,2 C 21,2 C 46 % 1022,7 hPa 0,0 l/m 4,4 km/h (1 Bft) S-SO 150 0 min 0 W/m 9,1 C 21,2 C 9,7 km/h (2 Bft)
14.06.2018 15:45 21,3 C 21,3 C 45 % 1022,7 hPa 0,0 l/m 5,9 km/h (2 Bft) S 173 0 min 0 W/m 8,9 C 21,3 C 9,7 km/h (2 Bft)
14.06.2018 15:40 21,4 C 21,4 C 45 % 1022,8 hPa 0,0 l/m 5,3 km/h (1 Bft) SO 138 0 min 0 W/m 9,0 C 21,4 C 9,7 km/h (2 Bft)
14.06.2018 15:35 21,4 C 21,4 C 44 % 1022,8 hPa 0,0 l/m 6,6 km/h (2 Bft) SO 138 0 min 0 W/m 8,6 C 21,4 C 14,5 km/h (3 Bft)
14.06.2018 15:30 21,5 C 21,5 C 45 % 1022,9 hPa 0,0 l/m 4,6 km/h (1 Bft) S 169 0 min 0 W/m 9,1 C 21,5 C 11,3 km/h (2 Bft)
14.06.2018 15:25 21,7 C 21,6 C 44 % 1022,8 hPa 0,0 l/m 5,1 km/h (1 Bft) SO 144 0 min 0 W/m 8,9 C 21,7 C 11,3 km/h (2 Bft)
14.06.2018 15:20 21,6 C 21,2 C 44 % 1022,9 hPa 0,0 l/m 8,3 km/h (2 Bft) S-SW 200 0 min 0 W/m 8,8 C 21,6 C 16,1 km/h (3 Bft)
14.06.2018 15:15 21,2 C 21,1 C 45 % 1022,8 hPa 0,0 l/m 4,2 km/h (1 Bft) SW 223 0 min 0 W/m 8,8 C 21,2 C 9,7 km/h (2 Bft)
14.06.2018 15:10 21,1 C 20,8 C 45 % 1022,9 hPa 0,0 l/m 7,5 km/h (2 Bft) S 191 0 min 0 W/m 8,7 C 21,1 C 17,7 km/h (3 Bft)
14.06.2018 15:05 20,8 C 20,8 C 45 % 1022,9 hPa 0,0 l/m 4,4 km/h (1 Bft) S-SW 204 0 min 0 W/m 8,4 C 20,8 C 9,7 km/h (2 Bft)
14.06.2018 15:00 20,8 C 20,6 C 46 % 1023,0 hPa 0,0 l/m 5,3 km/h (1 Bft) SO 126 0 min 0 W/m 8,8 C 20,8 C 11,3 km/h (2 Bft)
14.06.2018 14:55 20,7 C 20,7 C 45 % 1023,1 hPa 0,0 l/m 4,9 km/h (1 Bft) W-SW 251 0 min 0 W/m 8,3 C 20,7 C 9,7 km/h (2 Bft)
14.06.2018 14:50 20,9 C 20,9 C 46 % 1023,1 hPa 0,0 l/m 7,5 km/h (2 Bft) S-SO 163 0 min 0 W/m 8,8 C 20,9 C 14,5 km/h (3 Bft)
14.06.2018 14:45 21,1 C 21,0 C 47 % 1023,2 hPa 0,0 l/m 7,1 km/h (2 Bft) S 190 0 min 0 W/m 9,3 C 21,1 C 14,5 km/h (3 Bft)
14.06.2018 14:40 21,1 C 20,8 C 47 % 1023,2 hPa 0,0 l/m 6,7 km/h (2 Bft) SW 231 0 min 0 W/m 9,3 C 21,1 C 12,9 km/h (3 Bft)
14.06.2018 14:35 20,8 C 20,8 C 47 % 1023,2 hPa 0,0 l/m 5,4 km/h (1 Bft) S-SW 192 0 min 0 W/m 9,1 C 20,8 C 9,7 km/h (2 Bft)
14.06.2018 14:30 21,1 C 20,9 C 48 % 1023,3 hPa 0,0 l/m 4,2 km/h (1 Bft) S-SO 153 0 min 0 W/m 9,7 C 21,1 C 8,0 km/h (2 Bft)
14.06.2018 14:25 20,9 C 20,8 C 47 % 1023,3 hPa 0,0 l/m 5,3 km/h (1 Bft) S 173 0 min 0 W/m 9,2 C 20,9 C 11,3 km/h (2 Bft)
14.06.2018 14:20 20,8 C 20,8 C 47 % 1023,4 hPa 0,0 l/m 5,2 km/h (1 Bft) S-SW 201 0 min 0 W/m 9,1 C 20,8 C 11,3 km/h (2 Bft)
14.06.2018 14:15 20,9 C 20,8 C 45 % 1023,4 hPa 0,0 l/m 4,2 km/h (1 Bft) O-SO 111 0 min 0 W/m 8,5 C 20,9 C 9,7 km/h (2 Bft)
14.06.2018 14:10 20,8 C 20,6 C 48 % 1023,5 hPa 0,0 l/m 5,3 km/h (1 Bft) S-SW 193 0 min 0 W/m 9,4 C 20,8 C 11,3 km/h (2 Bft)
14.06.2018 14:05 20,6 C 20,2 C 49 % 1023,5 hPa 0,0 l/m 4,5 km/h (1 Bft) S-SO 157 0 min 0 W/m 9,5 C 20,6 C 12,9 km/h (3 Bft)
14.06.2018 14:00 20,2 C 20,0 C 48 % 1023,5 hPa 0,0 l/m 3,4 km/h (1 Bft) S-SO 155 0 min 0 W/m 8,8 C 20,2 C 6,4 km/h (2 Bft)
14.06.2018 13:55 20,0 C 19,9 C 49 % 1023,5 hPa 0,0 l/m 4,7 km/h (1 Bft) S-SW 213 0 min 0 W/m 9,0 C 20,0 C 9,7 km/h (2 Bft)
14.06.2018 13:50 20,1 C 20,1 C 47 % 1023,6 hPa 0,0 l/m 3,4 km/h (1 Bft) S-SO 155 0 min 0 W/m 8,4 C 20,1 C 9,7 km/h (2 Bft)
14.06.2018 13:45 20,5 C 20,4 C 49 % 1023,6 hPa 0,0 l/m 4,0 km/h (1 Bft) S 169 0 min 0 W/m 9,4 C 20,5 C 8,0 km/h (2 Bft)
14.06.2018 13:40 20,4 C 20,0 C 49 % 1023,6 hPa 0,0 l/m 4,0 km/h (1 Bft) S-SO 157 0 min 0 W/m 9,3 C 20,4 C 11,3 km/h (2 Bft)
14.06.2018 13:35 20,0 C 19,7 C 49 % 1023,6 hPa 0,0 l/m 4,6 km/h (1 Bft) S 188 0 min 0 W/m 9,0 C 20,0 C 9,7 km/h (2 Bft)
14.06.2018 13:30 19,7 C 19,7 C 49 % 1023,7 hPa 0,0 l/m 5,5 km/h (1 Bft) SW 215 0 min 0 W/m 8,7 C 19,7 C 9,7 km/h (2 Bft)
14.06.2018 13:25 19,9 C 19,8 C 50 % 1023,7 hPa 0,0 l/m 6,8 km/h (2 Bft) S-SW 200 0 min 0 W/m 9,2 C 19,9 C 11,3 km/h (2 Bft)
14.06.2018 13:20 20,1 C 20,1 C 48 % 1023,6 hPa 0,0 l/m 7,0 km/h (2 Bft) S-SW 211 0 min 0 W/m 8,7 C 20,1 C 11,3 km/h (2 Bft)
14.06.2018 13:15 20,1 C 20,1 C 50 % 1023,7 hPa 0,0 l/m 5,6 km/h (1 Bft) S-SW 194 0 min 0 W/m 9,3 C 20,1 C 11,3 km/h (2 Bft)
14.06.2018 13:10 20,1 C 19,6 C 47 % 1023,7 hPa 0,0 l/m 6,5 km/h (2 Bft) W-SW 248 0 min 0 W/m 8,4 C 20,1 C 12,9 km/h (3 Bft)
14.06.2018 13:05 19,6 C 19,1 C 52 % 1023,8 hPa 0,0 l/m 6,8 km/h (2 Bft) S 190 0 min 0 W/m 9,5 C 19,6 C 12,9 km/h (3 Bft)
14.06.2018 13:00 19,1 C 18,8 C 51 % 1023,7 hPa 0,0 l/m 3,4 km/h (1 Bft) S-SO 159 0 min 0 W/m 8,7 C 19,1 C 9,7 km/h (2 Bft)
14.06.2018 12:55 18,8 C 18,8 C 49 % 1023,7 hPa 0,0 l/m 4,0 km/h (1 Bft) W 272 0 min 0 W/m 7,9 C 18,8 C 9,7 km/h (2 Bft)
14.06.2018 12:50 18,8 C 18,8 C 50 % 1023,8 hPa 0,0 l/m 4,9 km/h (1 Bft) S-SW 210 0 min 0 W/m 8,2 C 18,8 C 9,7 km/h (2 Bft)
14.06.2018 12:45 18,9 C 18,9 C 52 % 1023,8 hPa 0,0 l/m 5,0 km/h (1 Bft) S-SO 155 0 min 0 W/m 8,8 C 18,9 C 9,7 km/h (2 Bft)
14.06.2018 12:40 18,9 C 18,9 C 50 % 1023,9 hPa 0,0 l/m 6,3 km/h (2 Bft) S-SO 160 0 min 0 W/m 8,2 C 18,9 C 14,5 km/h (3 Bft)
14.06.2018 12:35 18,9 C 18,9 C 50 % 1023,9 hPa 0,0 l/m 4,8 km/h (1 Bft) S 176 0 min 0 W/m 8,2 C 18,9 C 9,7 km/h (2 Bft)
14.06.2018 12:30 19,0 C 18,9 C 47 % 1023,9 hPa 0,0 l/m 3,3 km/h (1 Bft) S-SW 205 0 min 0 W/m 7,4 C 19,0 C 9,7 km/h (2 Bft)
14.06.2018 12:25 19,3 C 19,3 C 47 % 1023,9 hPa 0,0 l/m 4,8 km/h (1 Bft) S-SO 148 0 min 0 W/m 7,7 C 19,3 C 11,3 km/h (2 Bft)
14.06.2018 12:20 19,4 C 19,3 C 50 % 1023,9 hPa 0,0 l/m 4,2 km/h (1 Bft) SO 139 0 min 0 W/m 8,7 C 19,4 C 8,0 km/h (2 Bft)
14.06.2018 12:15 19,4 C 19,4 C 48 % 1023,9 hPa 0,0 l/m 5,7 km/h (1 Bft) N-NO 24 0 min 0 W/m 8,1 C 19,4 C 12,9 km/h (3 Bft)
14.06.2018 12:10 19,6 C 19,6 C 46 % 1024,0 hPa 0,0 l/m 4,1 km/h (1 Bft) N 5 0 min 0 W/m 7,7 C 19,6 C 8,0 km/h (2 Bft)
14.06.2018 12:05 19,8 C 19,8 C 46 % 1024,0 hPa 0,0 l/m 6,6 km/h (2 Bft) N-NO 25 0 min 0 W/m 7,8 C 19,8 C 14,5 km/h (3 Bft)
14.06.2018 12:00 19,9 C 19,9 C 46 % 1024,0 hPa 0,0 l/m 4,6 km/h (1 Bft) N-NW 344 0 min 0 W/m 7,9 C 19,9 C 12,9 km/h (3 Bft)
14.06.2018 11:55 20,0 C 19,6 C 46 % 1024,0 hPa 0,0 l/m 3,9 km/h (1 Bft) O 92 0 min 0 W/m 8,0 C 20,0 C 8,0 km/h (2 Bft)
14.06.2018 11:50 19,6 C 19,4 C 47 % 1024,1 hPa 0,0 l/m 4,8 km/h (1 Bft) SO 129 0 min 0 W/m 8,0 C 19,6 C 11,3 km/h (2 Bft)
14.06.2018 11:45 19,4 C 19,4 C 47 % 1024,1 hPa 0,0 l/m 5,8 km/h (2 Bft) O-SO 105 0 min 0 W/m 7,8 C 19,4 C 12,9 km/h (3 Bft)
14.06.2018 11:40 19,4 C 19,2 C 49 % 1024,1 hPa 0,0 l/m 4,3 km/h (1 Bft) SO 134 0 min 0 W/m 8,4 C 19,4 C 12,9 km/h (3 Bft)
14.06.2018 11:35 19,2 C 19,1 C 48 % 1024,1 hPa 0,0 l/m 3,8 km/h (1 Bft) S 173 0 min 0 W/m 7,9 C 19,2 C 11,3 km/h (2 Bft)
14.06.2018 11:30 19,1 C 18,6 C 47 % 1024,1 hPa 0,0 l/m 3,8 km/h (1 Bft) O-SO 106 0 min 0 W/m 7,5 C 19,1 C 9,7 km/h (2 Bft)
14.06.2018 11:25 18,6 C 18,2 C 49 % 1024,1 hPa 0,0 l/m 3,0 km/h (1 Bft) O-NO 62 0 min 0 W/m 7,7 C 18,6 C 6,4 km/h (2 Bft)
14.06.2018 11:20 18,2 C 17,9 C 50 % 1024,1 hPa 0,0 l/m 2,1 km/h (1 Bft) O 90 0 min 0 W/m 7,6 C 18,2 C 6,4 km/h (2 Bft)
14.06.2018 11:15 17,9 C 17,9 C 48 % 1024,1 hPa 0,0 l/m 2,3 km/h (1 Bft) O 83 0 min 0 W/m 6,7 C 17,9 C 4,8 km/h (1 Bft)
14.06.2018 11:10 18,1 C 18,1 C 49 % 1024,2 hPa 0,0 l/m 2,0 km/h (1 Bft) NO 36 0 min 0 W/m 7,2 C 18,1 C 4,8 km/h (1 Bft)
14.06.2018 11:05 18,1 C 18,1 C 49 % 1024,2 hPa 0,0 l/m 2,9 km/h (1 Bft) O-SO 103 0 min 0 W/m 7,2 C 18,1 C 4,8 km/h (1 Bft)
14.06.2018 11:00 18,2 C 18,2 C 48 % 1024,1 hPa 0,0 l/m 4,7 km/h (1 Bft) N 5 0 min 0 W/m 7,0 C 18,2 C 9,7 km/h (2 Bft)
14.06.2018 10:55 18,2 C 18,2 C 49 % 1024,2 hPa 0,0 l/m 4,9 km/h (1 Bft) O 84 0 min 0 W/m 7,3 C 18,2 C 11,3 km/h (2 Bft)
14.06.2018 10:50 18,2 C 18,2 C 48 % 1024,1 hPa 0,0 l/m 4,5 km/h (1 Bft) O-SO 111 0 min 0 W/m 7,0 C 18,2 C 9,7 km/h (2 Bft)
14.06.2018 10:45 18,2 C 18,2 C 49 % 1024,0 hPa 0,0 l/m 2,0 km/h (1 Bft) O-SO 116 0 min 0 W/m 7,3 C 18,2 C 6,4 km/h (2 Bft)
14.06.2018 10:40 18,3 C 18,3 C 50 % 1024,1 hPa 0,0 l/m 3,0 km/h (1 Bft) O-SO 105 0 min 0 W/m 7,7 C 18,3 C 6,4 km/h (2 Bft)
14.06.2018 10:35 18,4 C 18,4 C 48 % 1024,1 hPa 0,0 l/m 4,5 km/h (1 Bft) W-NW 298 0 min 0 W/m 7,2 C 18,4 C 8,0 km/h (2 Bft)
14.06.2018 10:30 18,6 C 18,4 C 48 % 1024,1 hPa 0,0 l/m 4,1 km/h (1 Bft) N-NW 344 0 min 0 W/m 7,4 C 18,6 C 8,0 km/h (2 Bft)
14.06.2018 10:25 18,4 C 18,1 C 50 % 1024,1 hPa 0,0 l/m 2,9 km/h (1 Bft) N 355 0 min 0 W/m 7,8 C 18,4 C 6,4 km/h (2 Bft)
14.06.2018 10:20 18,1 C 17,7 C 51 % 1024,1 hPa 0,0 l/m 2,5 km/h (1 Bft) NW 318 0 min 0 W/m 7,8 C 18,1 C 6,4 km/h (2 Bft)
14.06.2018 10:15 17,7 C 17,4 C 52 % 1024,1 hPa 0,0 l/m 4,3 km/h (1 Bft) O 89 0 min 0 W/m 7,7 C 17,7 C 8,0 km/h (2 Bft)
14.06.2018 10:10 17,4 C 17,3 C 51 % 1024,1 hPa 0,0 l/m 2,8 km/h (1 Bft) N-NO 24 0 min 0 W/m 7,2 C 17,4 C 6,4 km/h (2 Bft)
14.06.2018 10:05 17,3 C 17,2 C 50 % 1024,1 hPa 0,0 l/m 2,2 km/h (1 Bft) N 360 0 min 0 W/m 6,8 C 17,3 C 4,8 km/h (1 Bft)
14.06.2018 10:00 17,2 C 17,2 C 49 % 1024,1 hPa 0,0 l/m 2,3 km/h (1 Bft) NW 317 0 min 0 W/m 6,4 C 17,2 C 4,8 km/h (1 Bft)
14.06.2018 09:55 17,2 C 17,1 C 49 % 1024,2 hPa 0,0 l/m 2,3 km/h (1 Bft) NW 309 0 min 0 W/m 6,4 C 17,2 C 4,8 km/h (1 Bft)
14.06.2018 09:50 17,1 C 17,1 C 51 % 1024,0 hPa 0,0 l/m 2,4 km/h (1 Bft) W 274 0 min 0 W/m 6,9 C 17,1 C 4,8 km/h (1 Bft)
14.06.2018 09:45 17,1 C 17,0 C 52 % 1024,0 hPa 0,0 l/m 3,6 km/h (1 Bft) NO 39 0 min 0 W/m 7,2 C 17,1 C 8,0 km/h (2 Bft)
14.06.2018 09:40 17,1 C 17,0 C 51 % 1024,0 hPa 0,0 l/m 5,5 km/h (1 Bft) N-NW 329 0 min 0 W/m 6,9 C 17,1 C 11,3 km/h (2 Bft)
14.06.2018 09:35 17,1 C 17,1 C 52 % 1023,9 hPa 0,0 l/m 4,3 km/h (1 Bft) NW 315 0 min 0 W/m 7,2 C 17,1 C 9,7 km/h (2 Bft)
14.06.2018 09:30 17,1 C 17,1 C 55 % 1023,9 hPa 0,0 l/m 3,8 km/h (1 Bft) N-NO 25 0 min 0 W/m 8,0 C 17,1 C 9,7 km/h (2 Bft)
14.06.2018 09:25 17,1 C 16,9 C 55 % 1023,9 hPa 0,0 l/m 3,4 km/h (1 Bft) N-NO 16 0 min 0 W/m 8,0 C 17,1 C 6,4 km/h (2 Bft)
14.06.2018 09:20 16,9 C 16,7 C 59 % 1023,9 hPa 0,0 l/m 3,1 km/h (1 Bft) O-NO 76 0 min 0 W/m 8,8 C 16,9 C 8,0 km/h (2 Bft)
14.06.2018 09:15 16,8 C 16,6 C 66 % 1024,0 hPa 0,0 l/m 3,9 km/h (1 Bft) O-NO 77 0 min 0 W/m 10,4 C 16,8 C 8,0 km/h (2 Bft)
14.06.2018 09:10 16,6 C 16,4 C 67 % 1023,9 hPa 0,0 l/m 3,4 km/h (1 Bft) N-NO 26 0 min 0 W/m 10,4 C 16,6 C 6,4 km/h (2 Bft)
14.06.2018 09:05 16,4 C 16,2 C 70 % 1024,0 hPa 0,0 l/m 1,0 km/h (0 Bft) S-SO 164 0 min 0 W/m 10,9 C 16,4 C 3,2 km/h (1 Bft)
14.06.2018 09:00 16,2 C 15,9 C 72 % 1023,9 hPa 0,0 l/m 0,7 km/h (0 Bft) S-SO 164 0 min 0 W/m 11,1 C 16,2 C 3,2 km/h (1 Bft)
14.06.2018 08:55 15,9 C 15,7 C 74 % 1024,0 hPa 0,0 l/m 1,6 km/h (1 Bft) S-SO 164 0 min 0 W/m 11,3 C 15,9 C 6,4 km/h (2 Bft)
14.06.2018 08:50 15,7 C 15,5 C 73 % 1024,0 hPa 0,0 l/m 1,5 km/h (1 Bft) S-SO 162 0 min 0 W/m 10,9 C 15,7 C 4,8 km/h (1 Bft)
14.06.2018 08:45 15,5 C 15,3 C 75 % 1024,1 hPa 0,0 l/m 1,4 km/h (1 Bft) O-NO 74 0 min 0 W/m 11,1 C 15,5 C 4,8 km/h (1 Bft)
14.06.2018 08:40 15,3 C 15,1 C 76 % 1024,1 hPa 0,0 l/m 2,4 km/h (1 Bft) O-NO 74 0 min 0 W/m 11,1 C 15,3 C 4,8 km/h (1 Bft)
14.06.2018 08:35 15,1 C 15,0 C 78 % 1024,1 hPa 0,0 l/m 2,0 km/h (1 Bft) NO 36 0 min 0 W/m 11,3 C 15,1 C 3,2 km/h (1 Bft)
14.06.2018 08:30 15,0 C 14,8 C 79 % 1024,1 hPa 0,0 l/m 1,8 km/h (1 Bft) N-NO 12 0 min 0 W/m 11,4 C 15,0 C 3,2 km/h (1 Bft)
14.06.2018 08:25 14,8 C 14,7 C 80 % 1024,0 hPa 0,0 l/m 1,2 km/h (1 Bft) N-NO 12 0 min 0 W/m 11,4 C 14,8 C 3,2 km/h (1 Bft)
14.06.2018 08:20 14,7 C 14,6 C 80 % 1024,1 hPa 0,0 l/m 1,4 km/h (1 Bft) N-NO 12 0 min 0 W/m 11,3 C 14,7 C 3,2 km/h (1 Bft)
14.06.2018 08:15 14,6 C 14,4 C 82 % 1024,1 hPa 0,0 l/m 0,1 km/h (0 Bft) N-NO 12 0 min 0 W/m 11,6 C 14,6 C 1,6 km/h (1 Bft)
14.06.2018 08:10 14,4 C 14,3 C 82 % 1024,1 hPa 0,0 l/m 0,8 km/h (0 Bft) N-NO 12 0 min 0 W/m 11,4 C 14,4 C 3,2 km/h (1 Bft)
14.06.2018 08:05 14,3 C 14,2 C 82 % 1024,1 hPa 0,0 l/m 2,6 km/h (1 Bft) N-NO 12 0 min 0 W/m 11,3 C 14,3 C 4,8 km/h (1 Bft)
14.06.2018 08:00 14,2 C 14,2 C 82 % 1024,1 hPa 0,0 l/m 1,1 km/h (1 Bft) N-NO 12 0 min 0 W/m 11,2 C 14,2 C 3,2 km/h (1 Bft)
14.06.2018 07:55 14,2 C 14,1 C 83 % 1024,2 hPa 0,0 l/m 1,9 km/h (1 Bft) N 9 0 min 0 W/m 11,4 C 14,2 C 4,8 km/h (1 Bft)
14.06.2018 07:50 14,1 C 14,1 C 83 % 1024,1 hPa 0,0 l/m 1,4 km/h (1 Bft) N 9 0 min 0 W/m 11,3 C 14,1 C 3,2 km/h (1 Bft)
14.06.2018 07:45 14,1 C 13,9 C 83 % 1024,1 hPa 0,0 l/m 1,6 km/h (1 Bft) N 9 0 min 0 W/m 11,3 C 14,1 C 3,2 km/h (1 Bft)
14.06.2018 07:40 13,9 C 13,9 C 83 % 1024,1 hPa 0,0 l/m 2,0 km/h (1 Bft) N 9 0 min 0 W/m 11,1 C 13,9 C 4,8 km/h (1 Bft)
14.06.2018 07:35 13,9 C 13,8 C 83 % 1024,0 hPa 0,0 l/m 2,4 km/h (1 Bft) N-NO 30 0 min 0 W/m 11,1 C 13,9 C 3,2 km/h (1 Bft)
14.06.2018 07:30 13,8 C 13,7 C 84 % 1024,1 hPa 0,0 l/m 2,3 km/h (1 Bft) N-NO 31 0 min 0 W/m 11,1 C 13,8 C 3,2 km/h (1 Bft)
14.06.2018 07:25 13,7 C 13,6 C 84 % 1024,1 hPa 0,0 l/m 2,3 km/h (1 Bft) N-NO 31 0 min 0 W/m 11,0 C 13,7 C 3,2 km/h (1 Bft)
14.06.2018 07:20 13,6 C 13,5 C 84 % 1024,1 hPa 0,0 l/m 2,8 km/h (1 Bft) N-NO 31 0 min 0 W/m 10,9 C 13,6 C 4,8 km/h (1 Bft)
14.06.2018 07:15 13,5 C 13,4 C 84 % 1024,0 hPa 0,0 l/m 2,6 km/h (1 Bft) N-NO 13 0 min 0 W/m 10,8 C 13,5 C 4,8 km/h (1 Bft)
14.06.2018 07:10 13,4 C 13,3 C 84 % 1024,0 hPa 0,0 l/m 2,1 km/h (1 Bft) N 9 0 min 0 W/m 10,8 C 13,4 C 3,2 km/h (1 Bft)
14.06.2018 07:05 13,3 C 13,3 C 84 % 1024,0 hPa 0,0 l/m 2,2 km/h (1 Bft) N-NO 13 0 min 0 W/m 10,7 C 13,3 C 4,8 km/h (1 Bft)
14.06.2018 07:00 13,3 C 13,2 C 85 % 1024,0 hPa 0,0 l/m 2,2 km/h (1 Bft) N-NO 24 0 min 0 W/m 10,8 C 13,3 C 4,8 km/h (1 Bft)
14.06.2018 06:55 13,2 C 13,1 C 85 % 1024,0 hPa 0,0 l/m 0,9 km/h (0 Bft) N-NO 23 0 min 0 W/m 10,7 C 13,2 C 3,2 km/h (1 Bft)
14.06.2018 06:50 13,2 C 13,1 C 86 % 1023,9 hPa 0,0 l/m 1,2 km/h (1 Bft) N-NO 23 0 min 0 W/m 10,9 C 13,2 C 3,2 km/h (1 Bft)
14.06.2018 06:45 13,1 C 13,1 C 85 % 1023,9 hPa 0,0 l/m 3,7 km/h (1 Bft) N-NO 23 0 min 0 W/m 10,6 C 13,1 C 6,4 km/h (2 Bft)
14.06.2018 06:40 13,1 C 13,1 C 85 % 1024,0 hPa 0,0 l/m 4,1 km/h (1 Bft) N 5 0 min 0 W/m 10,6 C 13,1 C 6,4 km/h (2 Bft)
14.06.2018 06:35 13,1 C 13,1 C 85 % 1024,0 hPa 0,0 l/m 3,4 km/h (1 Bft) N 5 0 min 0 W/m 10,6 C 13,1 C 6,4 km/h (2 Bft)
14.06.2018 06:30 13,1 C 13,0 C 85 % 1024,0 hPa 0,0 l/m 2,4 km/h (1 Bft) N 355 0 min 0 W/m 10,6 C 13,1 C 4,8 km/h (1 Bft)
14.06.2018 06:25 13,0 C 13,0 C 86 % 1024,0 hPa 0,0 l/m 1,4 km/h (1 Bft) N 10 0 min 0 W/m 10,7 C 13,0 C 3,2 km/h (1 Bft)
14.06.2018 06:20 13,0 C 13,0 C 85 % 1024,0 hPa 0,0 l/m 3,0 km/h (1 Bft) N 10 0 min 0 W/m 10,5 C 13,0 C 6,4 km/h (2 Bft)
14.06.2018 06:15 13,0 C 12,9 C 85 % 1024,0 hPa 0,0 l/m 2,5 km/h (1 Bft) N-NO 32 0 min 0 W/m 10,5 C 13,0 C 6,4 km/h (2 Bft)
14.06.2018 06:10 12,9 C 12,9 C 86 % 1023,9 hPa 0,0 l/m 1,7 km/h (1 Bft) N 5 0 min 0 W/m 10,6 C 12,9 C 3,2 km/h (1 Bft)
14.06.2018 06:05 12,9 C 12,9 C 86 % 1024,0 hPa 0,0 l/m 2,7 km/h (1 Bft) N 5 0 min 0 W/m 10,6 C 12,9 C 4,8 km/h (1 Bft)
14.06.2018 06:00 13,0 C 12,9 C 86 % 1024,1 hPa 0,0 l/m 1,3 km/h (1 Bft) N 5 0 min 0 W/m 10,7 C 13,0 C 3,2 km/h (1 Bft)
14.06.2018 05:55 12,9 C 12,9 C 86 % 1024,0 hPa 0,0 l/m 2,4 km/h (1 Bft) N 5 0 min 0 W/m 10,6 C 12,9 C 4,8 km/h (1 Bft)
14.06.2018 05:50 13,0 C 12,9 C 86 % 1023,9 hPa 0,0 l/m 2,9 km/h (1 Bft) N 5 0 min 0 W/m 10,7 C 13,0 C 4,8 km/h (1 Bft)
14.06.2018 05:45 13,0 C 13,0 C 86 % 1023,9 hPa 0,0 l/m 2,7 km/h (1 Bft) N 5 0 min 0 W/m 10,7 C 13,0 C 4,8 km/h (1 Bft)
14.06.2018 05:40 13,0 C 13,0 C 86 % 1023,8 hPa 0,0 l/m 1,1 km/h (1 Bft) N 5 0 min 0 W/m 10,7 C 13,0 C 3,2 km/h (1 Bft)
14.06.2018 05:35 13,0 C 13,0 C 87 % 1023,9 hPa 0,0 l/m 1,6 km/h (1 Bft) N 5 0 min 0 W/m 10,9 C 13,0 C 3,2 km/h (1 Bft)
14.06.2018 05:30 13,0 C 12,9 C 87 % 1023,7 hPa 0,0 l/m 1,1 km/h (1 Bft) N 5 0 min 0 W/m 10,9 C 13,0 C 3,2 km/h (1 Bft)
14.06.2018 05:25 12,9 C 12,9 C 87 % 1023,7 hPa 0,0 l/m 0,8 km/h (0 Bft) N 5 0 min 0 W/m 10,8 C 12,9 C 3,2 km/h (1 Bft)
14.06.2018 05:20 12,9 C 12,9 C 87 % 1023,8 hPa 0,0 l/m 1,2 km/h (1 Bft) N 5 0 min 0 W/m 10,8 C 12,9 C 3,2 km/h (1 Bft)
14.06.2018 05:15 12,9 C 12,9 C 86 % 1023,8 hPa 0,0 l/m 2,1 km/h (1 Bft) N 5 0 min 0 W/m 10,6 C 12,9 C 4,8 km/h (1 Bft)
14.06.2018 05:10 13,0 C 12,9 C 86 % 1023,8 hPa 0,0 l/m 2,9 km/h (1 Bft) N 5 0 min 0 W/m 10,7 C 13,0 C 4,8 km/h (1 Bft)
14.06.2018 05:05 13,0 C 13,0 C 86 % 1023,7 hPa 0,0 l/m 1,6 km/h (1 Bft) N 5 0 min 0 W/m 10,7 C 13,0 C 4,8 km/h (1 Bft)
14.06.2018 05:00 13,1 C 13,1 C 85 % 1023,8 hPa 0,0 l/m 3,2 km/h (1 Bft) N 5 0 min 0 W/m 10,6 C 13,1 C 6,4 km/h (2 Bft)
14.06.2018 04:55 13,1 C 13,1 C 85 % 1023,8 hPa 0,0 l/m 2,3 km/h (1 Bft) N 5 0 min 0 W/m 10,6 C 13,1 C 3,2 km/h (1 Bft)
14.06.2018 04:50 13,1 C 13,1 C 86 % 1023,8 hPa 0,0 l/m 2,8 km/h (1 Bft) N 5 0 min 0 W/m 10,8 C 13,1 C 4,8 km/h (1 Bft)
14.06.2018 04:45 13,1 C 13,1 C 86 % 1023,8 hPa 0,0 l/m 2,1 km/h (1 Bft) N 5 0 min 0 W/m 10,8 C 13,1 C 3,2 km/h (1 Bft)
14.06.2018 04:40 13,1 C 13,1 C 85 % 1023,7 hPa 0,0 l/m 2,4 km/h (1 Bft) N 5 0 min 0 W/m 10,6 C 13,1 C 4,8 km/h (1 Bft)
14.06.2018 04:35 13,1 C 13,1 C 85 % 1023,7 hPa 0,0 l/m 2,9 km/h (1 Bft) N 5 0 min 0 W/m 10,6 C 13,1 C 4,8 km/h (1 Bft)
14.06.2018 04:30 13,1 C 13,1 C 85 % 1023,7 hPa 0,0 l/m 2,6 km/h (1 Bft) N 5 0 min 0 W/m 10,6 C 13,1 C 4,8 km/h (1 Bft)
14.06.2018 04:25 13,2 C 13,2 C 85 % 1023,7 hPa 0,0 l/m 2,8 km/h (1 Bft) N 5 0 min 0 W/m 10,7 C 13,2 C 4,8 km/h (1 Bft)
14.06.2018 04:20 13,2 C 13,2 C 85 % 1023,6 hPa 0,0 l/m 2,8 km/h (1 Bft) N 5 0 min 0 W/m 10,7 C 13,2 C 4,8 km/h (1 Bft)
14.06.2018 04:15 13,3 C 13,3 C 85 % 1023,7 hPa 0,0 l/m 2,9 km/h (1 Bft) N 5 0 min 0 W/m 10,8 C 13,3 C 4,8 km/h (1 Bft)
14.06.2018 04:10 13,4 C 13,4 C 85 % 1023,7 hPa 0,0 l/m 1,6 km/h (1 Bft) N-NO 12 0 min 0 W/m 10,9 C 13,4 C 3,2 km/h (1 Bft)
14.06.2018 04:05 13,4 C 13,4 C 85 % 1023,8 hPa 0,0 l/m 1,4 km/h (1 Bft) N-NO 12 0 min 0 W/m 10,9 C 13,4 C 3,2 km/h (1 Bft)
14.06.2018 04:00 13,4 C 13,4 C 86 % 1023,7 hPa 0,0 l/m 1,3 km/h (1 Bft) N-NO 12 0 min 0 W/m 11,1 C 13,4 C 3,2 km/h (1 Bft)
14.06.2018 03:55 13,4 C 13,4 C 86 % 1023,8 hPa 0,0 l/m 1,0 km/h (0 Bft) N-NO 12 0 min 0 W/m 11,1 C 13,4 C 3,2 km/h (1 Bft)
14.06.2018 03:50 13,4 C 13,4 C 85 % 1023,8 hPa 0,0 l/m 1,6 km/h (1 Bft) N-NO 12 0 min 0 W/m 10,9 C 13,4 C 3,2 km/h (1 Bft)
14.06.2018 03:45 13,5 C 13,5 C 85 % 1023,9 hPa 0,0 l/m 1,5 km/h (1 Bft) N-NO 12 0 min 0 W/m 11,0 C 13,5 C 3,2 km/h (1 Bft)
14.06.2018 03:40 13,5 C 13,5 C 86 % 1023,9 hPa 0,0 l/m 1,3 km/h (1 Bft) N-NO 12 0 min 0 W/m 11,2 C 13,5 C 3,2 km/h (1 Bft)
14.06.2018 03:35 13,5 C 13,5 C 86 % 1023,9 hPa 0,0 l/m 0,8 km/h (0 Bft) N-NO 12 0 min 0 W/m 11,2 C 13,5 C 1,6 km/h (1 Bft)
14.06.2018 03:30 13,6 C 13,6 C 85 % 1024,0 hPa 0,0 l/m 0,9 km/h (0 Bft) N-NO 12 0 min 0 W/m 11,1 C 13,6 C 1,6 km/h (1 Bft)
14.06.2018 03:25 13,6 C 13,6 C 85 % 1024,0 hPa 0,0 l/m 0,1 km/h (0 Bft) N-NO 12 0 min 0 W/m 11,1 C 13,6 C 1,6 km/h (1 Bft)
14.06.2018 03:20 13,6 C 13,6 C 85 % 1024,0 hPa 0,0 l/m 1,2 km/h (1 Bft) N-NO 12 0 min 0 W/m 11,1 C 13,6 C 3,2 km/h (1 Bft)
14.06.2018 03:15 13,6 C 13,6 C 85 % 1024,0 hPa 0,0 l/m 1,1 km/h (1 Bft) N-NO 12 0 min 0 W/m 11,1 C 13,6 C 3,2 km/h (1 Bft)
14.06.2018 03:10 13,6 C 13,6 C 85 % 1023,9 hPa 0,0 l/m 1,0 km/h (0 Bft) N-NO 12 0 min 0 W/m 11,1 C 13,6 C 1,6 km/h (1 Bft)
14.06.2018 03:05 13,6 C 13,6 C 85 % 1023,9 hPa 0,0 l/m 1,4 km/h (1 Bft) N-NO 12 0 min 0 W/m 11,1 C 13,6 C 3,2 km/h (1 Bft)
14.06.2018 03:00 13,6 C 13,6 C 85 % 1024,0 hPa 0,0 l/m 1,6 km/h (1 Bft) N-NO 12 0 min 0 W/m 11,1 C 13,6 C 3,2 km/h (1 Bft)
14.06.2018 02:55 13,6 C 13,6 C 84 % 1024,0 hPa 0,0 l/m 1,6 km/h (1 Bft) N-NO 12 0 min 0 W/m 10,9 C 13,6 C 3,2 km/h (1 Bft)
14.06.2018 02:50 13,6 C 13,6 C 84 % 1024,0 hPa 0,0 l/m 1,2 km/h (1 Bft) N-NO 12 0 min 0 W/m 10,9 C 13,6 C 3,2 km/h (1 Bft)
14.06.2018 02:45 13,7 C 13,7 C 84 % 1024,0 hPa 0,0 l/m 1,5 km/h (1 Bft) N-NO 12 0 min 0 W/m 11,0 C 13,7 C 3,2 km/h (1 Bft)
14.06.2018 02:40 13,7 C 13,7 C 84 % 1024,0 hPa 0,0 l/m 1,8 km/h (1 Bft) N-NO 12 0 min 0 W/m 11,0 C 13,7 C 3,2 km/h (1 Bft)
14.06.2018 02:35 13,7 C 13,7 C 84 % 1024,0 hPa 0,0 l/m 1,6 km/h (1 Bft) N-NO 12 0 min 0 W/m 11,0 C 13,7 C 3,2 km/h (1 Bft)
14.06.2018 02:30 13,7 C 13,7 C 84 % 1024,0 hPa 0,0 l/m 1,2 km/h (1 Bft) N-NO 12 0 min 0 W/m 11,0 C 13,7 C 3,2 km/h (1 Bft)
14.06.2018 02:25 13,7 C 13,7 C 84 % 1024,1 hPa 0,0 l/m 0,8 km/h (0 Bft) N-NO 12 0 min 0 W/m 11,0 C 13,7 C 3,2 km/h (1 Bft)
14.06.2018 02:20 13,7 C 13,7 C 83 % 1024,1 hPa 0,0 l/m 2,7 km/h (1 Bft) N-NO 12 0 min 0 W/m 10,9 C 13,7 C 6,4 km/h (2 Bft)
14.06.2018 02:15 13,7 C 13,7 C 83 % 1024,1 hPa 0,0 l/m 2,5 km/h (1 Bft) N 5 0 min 0 W/m 10,9 C 13,7 C 6,4 km/h (2 Bft)
14.06.2018 02:10 13,7 C 13,7 C 83 % 1024,1 hPa 0,0 l/m 3,3 km/h (1 Bft) NW 323 0 min 0 W/m 10,9 C 13,7 C 4,8 km/h (1 Bft)
14.06.2018 02:05 13,7 C 13,7 C 83 % 1024,1 hPa 0,0 l/m 2,1 km/h (1 Bft) NW 306 0 min 0 W/m 10,9 C 13,7 C 3,2 km/h (1 Bft)
14.06.2018 02:00 13,7 C 13,7 C 83 % 1024,1 hPa 0,0 l/m 2,0 km/h (1 Bft) N 5 0 min 0 W/m 10,9 C 13,7 C 4,8 km/h (1 Bft)
14.06.2018 01:55 13,7 C 13,7 C 83 % 1024,1 hPa 0,0 l/m 2,9 km/h (1 Bft) N 5 0 min 0 W/m 10,9 C 13,7 C 4,8 km/h (1 Bft)
14.06.2018 01:50 13,7 C 13,7 C 83 % 1024,2 hPa 0,0 l/m 1,7 km/h (1 Bft) N-NO 32 0 min 0 W/m 10,9 C 13,7 C 4,8 km/h (1 Bft)
14.06.2018 01:45 13,7 C 13,7 C 83 % 1024,2 hPa 0,0 l/m 1,4 km/h (1 Bft) N-NO 19 0 min 0 W/m 10,9 C 13,7 C 3,2 km/h (1 Bft)
14.06.2018 01:40 13,7 C 13,7 C 83 % 1024,1 hPa 0,0 l/m 2,2 km/h (1 Bft) N-NO 19 0 min 0 W/m 10,9 C 13,7 C 4,8 km/h (1 Bft)
14.06.2018 01:35 13,7 C 13,7 C 83 % 1024,2 hPa 0,0 l/m 2,3 km/h (1 Bft) N-NO 28 0 min 0 W/m 10,9 C 13,7 C 4,8 km/h (1 Bft)
14.06.2018 01:30 13,8 C 13,8 C 83 % 1024,2 hPa 0,0 l/m 3,3 km/h (1 Bft) N-NO 27 0 min 0 W/m 11,0 C 13,8 C 6,4 km/h (2 Bft)
14.06.2018 01:25 13,8 C 13,8 C 83 % 1024,2 hPa 0,0 l/m 2,5 km/h (1 Bft) NO 40 0 min 0 W/m 11,0 C 13,8 C 4,8 km/h (1 Bft)
14.06.2018 01:20 13,8 C 13,8 C 83 % 1024,2 hPa 0,0 l/m 3,3 km/h (1 Bft) NO 40 0 min 0 W/m 11,0 C 13,8 C 6,4 km/h (2 Bft)
14.06.2018 01:15 13,8 C 13,8 C 83 % 1024,3 hPa 0,0 l/m 3,3 km/h (1 Bft) NO 42 0 min 0 W/m 11,0 C 13,8 C 6,4 km/h (2 Bft)
14.06.2018 01:10 13,9 C 13,8 C 83 % 1024,3 hPa 0,0 l/m 3,4 km/h (1 Bft) N-NO 26 0 min 0 W/m 11,1 C 13,9 C 6,4 km/h (2 Bft)
14.06.2018 01:05 13,9 C 13,9 C 83 % 1024,3 hPa 0,0 l/m 3,7 km/h (1 Bft) N-NO 26 0 min 0 W/m 11,1 C 13,9 C 6,4 km/h (2 Bft)
14.06.2018 01:00 13,9 C 13,9 C 82 % 1024,3 hPa 0,0 l/m 4,0 km/h (1 Bft) N-NO 20 0 min 0 W/m 10,9 C 13,9 C 6,4 km/h (2 Bft)
14.06.2018 00:55 14,0 C 14,0 C 82 % 1024,3 hPa 0,0 l/m 2,7 km/h (1 Bft) N-NO 17 0 min 0 W/m 11,0 C 14,0 C 6,4 km/h (2 Bft)
14.06.2018 00:50 14,0 C 14,0 C 82 % 1024,3 hPa 0,0 l/m 4,2 km/h (1 Bft) N-NO 17 0 min 0 W/m 11,0 C 14,0 C 6,4 km/h (2 Bft)
14.06.2018 00:45 14,1 C 14,0 C 82 % 1024,4 hPa 0,0 l/m 3,2 km/h (1 Bft) N 5 0 min 0 W/m 11,1 C 14,1 C 4,8 km/h (1 Bft)
14.06.2018 00:40 14,0 C 14,0 C 82 % 1024,3 hPa 0,0 l/m 3,0 km/h (1 Bft) N-NO 18 0 min 0 W/m 11,0 C 14,0 C 4,8 km/h (1 Bft)
14.06.2018 00:35 14,1 C 14,1 C 82 % 1024,3 hPa 0,0 l/m 3,4 km/h (1 Bft) N 5 0 min 0 W/m 11,1 C 14,1 C 4,8 km/h (1 Bft)
14.06.2018 00:30 14,1 C 14,1 C 81 % 1024,2 hPa 0,0 l/m 3,2 km/h (1 Bft) N-NO 19 0 min 0 W/m 10,9 C 14,1 C 6,4 km/h (2 Bft)
14.06.2018 00:25 14,1 C 14,1 C 81 % 1024,3 hPa 0,0 l/m 3,0 km/h (1 Bft) N 10 0 min 0 W/m 10,9 C 14,1 C 6,4 km/h (2 Bft)
14.06.2018 00:20 14,2 C 14,2 C 81 % 1024,3 hPa 0,0 l/m 3,9 km/h (1 Bft) N 5 0 min 0 W/m 11,0 C 14,2 C 8,0 km/h (2 Bft)
14.06.2018 00:15 14,3 C 14,3 C 81 % 1024,2 hPa 0,0 l/m 3,7 km/h (1 Bft) N-NO 26 0 min 0 W/m 11,1 C 14,3 C 6,4 km/h (2 Bft)
14.06.2018 00:10 14,3 C 14,3 C 81 % 1024,3 hPa 0,0 l/m 3,2 km/h (1 Bft) N 360 0 min 0 W/m 11,1 C 14,3 C 4,8 km/h (1 Bft)
14.06.2018 00:05 14,4 C 14,4 C 80 % 1024,3 hPa 0,0 l/m 2,3 km/h (1 Bft) N 360 0 min 0 W/m 11,0 C 14,4 C 4,8 km/h (1 Bft)
14.06.2018 00:00 14,5 C 14,5 C 80 % 1024,3 hPa 0,0 l/m 2,6 km/h (1 Bft) N 360 0 min 0 W/m 11,1 C 14,5 C 4,8 km/h (1 Bft)
_ Min-Zeit 05:10 05:10 15:20 17:20 - 03:25 - - - - 09:55 05:15 03:10
Minimum _ 12,9 C 12,9 C 44 % 1022,0 hPa - 0,1 km/h (0 Bft) - - - - 6,4 C 12,9 C 1,6 km/h (1 Bft)
_ Max-Zeit 15:25 15:25 05:20 00:45 00:00 15:20 - - 00:00 00:00 08:15 15:25 15:10
Maximum _ 21,7 C 21,6 C 87 % 1024,4 hPa 0,0 l/m 8,3 km/h
S-SW (2 Bft)
- - 0 min 0 W/m 11,6 C 21,7 C 17,7 km/h
SW (3 Bft)
Durchschnitt _ 16,7 C 16,6 C 66 % 1023,7 hPa #0,0 l/m 3,3 km/h (1 Bft) N-NO - #0 min. 0 W/m 9,7 C 16,7 C 7,0 km/h (2 Bft)